Boonville, MO

1:20 AM CDT on October 23, 2017 (GMT -0500)
Viertel Memorial

Weather History for KVER - January, 2012

Change the Weather History Date:

Sunday, January 22, 2012

  Actual Average Record
Temperature  
Mean Temperature 40 °F -  
Max Temperature 53 °F 38 °F 73 °F (1957)
Min Temperature 27 °F 22 °F -11 °F (1970)
Degree Days  
Heating Degree Days 25    
Moisture  
Dew Point 38 °F    
Average Humidity 87    
Maximum Humidity 98    
Minimum Humidity 66    
Precipitation  
Precipitation 0.06 in - - ()
Sea Level Pressure  
Sea Level Pressure 29.59 in    
Wind  
Wind Speed 14 mph (SSE)    
Max Wind Speed 21 mph    
Max Gust Speed 29 mph    
Visibility 8 miles    
Events Rain , Thunderstorm    
Averages and records for this station are not official NWS values.
T = Trace of Precipitation, MM = Missing Value Source: NWS Daily Summary

Daily Weather History Graph

Daily Weather History Graph

Search for Another Location

Airport or City:

Trip Planner

Search our weather history database for the weather conditions in past years. The results will help you decide how hot, cold, wet, or windy it might be!

Date:

Astronomy

Jan. 22, 2012 Rise Set
Actual Time 7:24 AM CST 5:19 PM CST
Civil Twilight 6:56 AM CST 5:48 PM CST
Nautical Twilight 6:23 AM CST 6:21 PM CST
Astronomical Twilight 5:51 AM CST 6:53 PM CST
Moon 6:41 AM CST (1/22) 5:02 PM CST (1/22)
Length of Visible Light 10h 52m
Length of Day
9h 55m
Waning Crescent, 0% of the Moon is Illuminated
Jan 22
Waning Crescent
Jan 23
New
Jan 30
First Quarter
Feb 7
Full
Feb 14
Last Quarter

Hourly Weather History & Observations

Time (CST) Temp. Windchill Dew Point Humidity Pressure Visibility Wind Dir Wind Speed Gust Speed Precip Events Conditions
12:15 AM 27.9 °F 15.9 °F 25.0 °F 89% 29.88 in 10.0 mi SE 16.1 mph 20.7 mph N/A   Mostly Cloudy
12:35 AM 28.9 °F 18.6 °F 25.7 °F 88% 29.88 in 10.0 mi SE 12.7 mph - N/A   Overcast
12:55 AM 29.3 °F 20.2 °F 25.9 °F 87% 29.87 in 10.0 mi SE 10.4 mph - N/A   Overcast
1:15 AM 29.7 °F 19.6 °F 26.2 °F 87% 29.86 in 10.0 mi SE 12.7 mph - N/A   Overcast
1:35 AM 29.8 °F 18.4 °F 26.6 °F 88% 29.85 in 10.0 mi SE 16.1 mph 19.6 mph N/A   Overcast
1:55 AM 30.0 °F 19.1 °F 26.8 °F 88% 29.85 in 10.0 mi SE 15.0 mph 20.7 mph N/A   Overcast
2:15 AM 30.0 °F 19.5 °F 27.0 °F 88% 29.84 in 10.0 mi SE 13.8 mph - N/A   Overcast
2:55 AM 30.6 °F 20.2 °F 27.1 °F 87% 29.85 in 10.0 mi SE 13.8 mph 18.4 mph N/A   Overcast
3:15 AM 30.9 °F 21.2 °F 27.3 °F 86% 29.83 in 10.0 mi SE 12.7 mph 19.6 mph N/A   Overcast
3:35 AM 31.1 °F 20.5 °F 27.7 °F 87% 29.81 in 10.0 mi SE 15.0 mph - N/A   Overcast
3:55 AM 31.5 °F 21.4 °F 28.4 °F 88% 29.80 in 10.0 mi SE 13.8 mph 18.4 mph N/A   Overcast
4:15 AM 31.5 °F 20.9 °F 28.9 °F 90% 29.79 in 7.0 mi SE 15.0 mph 19.6 mph N/A   Overcast
4:35 AM 31.6 °F 22.6 °F 29.3 °F 91% 29.79 in 7.0 mi SE 11.5 mph - N/A   Overcast
5:15 AM 32.0 °F 20.1 °F 30.2 °F 93% 29.75 in 7.0 mi SE 19.6 mph 25.3 mph N/A   Overcast
5:35 AM 32.2 °F 21.4 °F 30.4 °F 93% 29.74 in 10.0 mi SE 16.1 mph 21.9 mph N/A   Overcast
5:55 AM 32.7 °F 21.8 °F 30.9 °F 93% 29.73 in 10.0 mi SE 17.3 mph 23.0 mph N/A   Overcast
6:35 AM 33.1 °F 22.6 °F 31.6 °F 94% 29.71 in 7.0 mi SE 16.1 mph 21.9 mph N/A   Overcast
6:55 AM 33.3 °F 24.1 °F 32.0 °F 95% 29.71 in 5.0 mi SSE 12.7 mph - N/A   Overcast
7:15 AM 33.3 °F 24.1 °F 32.0 °F 95% 29.70 in 2.5 mi SSE 12.7 mph - N/A   Overcast
7:35 AM 33.6 °F 24.6 °F 32.5 °F 96% 29.69 in 1.8 mi SE 12.7 mph - N/A   Overcast
7:55 AM 33.8 °F 24.3 °F 33.1 °F 97% 29.68 in 1.2 mi SE 13.8 mph 19.6 mph N/A   Overcast
8:15 AM 34.3 °F 24.2 °F 33.6 °F 97% 29.66 in 1.2 mi SE 16.1 mph - N/A   Overcast
8:35 AM 34.9 °F 25.7 °F 34.3 °F 98% 29.67 in 1.2 mi SSE 13.8 mph 19.6 mph N/A   Overcast
8:55 AM 35.4 °F 26.8 °F 34.7 °F 97% 29.66 in 1.2 mi SE 12.7 mph - N/A   Overcast
9:15 AM 36.0 °F 27.1 °F 35.2 °F 97% 29.65 in 1.2 mi SSE 13.8 mph - N/A   Overcast
9:35 AM 36.5 °F 28.2 °F 35.8 °F 97% 29.65 in 1.2 mi SSE 12.7 mph - N/A   Overcast
9:55 AM 37.4 °F 29.8 °F 36.7 °F 97% 29.65 in 1.5 mi SSE 11.5 mph - N/A   Overcast
10:15 AM 38.1 °F 29.8 °F 37.4 °F 97% 29.65 in 2.0 mi SSE 13.8 mph 20.7 mph N/A   Overcast
10:55 AM 39.4 °F 31.4 °F 38.7 °F 97% 29.62 in 3.0 mi SSE 13.8 mph - N/A   Overcast
11:15 AM 40.3 °F 33.4 °F 39.6 °F 97% 29.61 in 5.0 mi SSE 11.5 mph - N/A   Overcast
11:35 AM 41.4 °F 34.3 °F 40.5 °F 97% 29.60 in 7.0 mi SSE 12.7 mph - N/A   Overcast
11:55 AM 43.5 °F 35.0 °F 41.2 °F 91% 29.58 in 10.0 mi South 20.7 mph 27.6 mph N/A   Overcast
12:35 PM 46.2 °F 39.8 °F 41.4 °F 83% 29.56 in 10.0 mi SSE 15.0 mph 20.7 mph N/A   Overcast
12:55 PM 48.0 °F - 41.7 °F 79% 29.54 in 10.0 mi SSE 19.6 mph 25.3 mph N/A   Overcast
1:15 PM 50.7 °F - 41.5 °F 71% 29.53 in 10.0 mi South 16.1 mph 28.8 mph N/A   Scattered Clouds
1:35 PM 52.5 °F - 41.7 °F 67% 29.53 in 10.0 mi SSE 15.0 mph 24.2 mph N/A   Scattered Clouds
1:55 PM 52.7 °F - 41.7 °F 66% 29.53 in 10.0 mi South 18.4 mph 26.5 mph N/A   Mostly Cloudy
2:15 PM 52.7 °F - 41.9 °F 67% 29.51 in 10.0 mi SSE 16.1 mph 19.6 mph N/A   Overcast
2:35 PM 53.1 °F - 42.1 °F 66% 29.50 in 10.0 mi SSE 16.1 mph 20.7 mph N/A   Overcast
2:55 PM 53.4 °F - 42.6 °F 67% 29.47 in 10.0 mi SSE 16.1 mph - N/A   Overcast
4:15 PM 52.5 °F - 44.8 °F 75% 29.43 in 10.0 mi SSE 13.8 mph 24.2 mph N/A   Scattered Clouds
4:35 PM 52.7 °F - 45.5 °F 76% 29.43 in 10.0 mi SSE 15.0 mph 23.0 mph N/A   Scattered Clouds
4:55 PM 52.7 °F - 46.2 °F 79% 29.42 in 10.0 mi SSE 17.3 mph 21.9 mph N/A   Scattered Clouds
5:15 PM 52.9 °F - 46.8 °F 80% 29.45 in 10.0 mi SSE 13.8 mph 23.0 mph N/A   Mostly Cloudy
5:35 PM 53.4 °F - 47.3 °F 80% 29.45 in 10.0 mi South 13.8 mph 21.9 mph N/A   Overcast
5:55 PM 53.4 °F - 47.5 °F 80% 29.45 in 10.0 mi South 13.8 mph - N/A   Overcast
6:15 PM 53.2 °F - 47.7 °F 81% 29.46 in 10.0 mi South 11.5 mph 17.3 mph N/A   Overcast
6:35 PM 53.4 °F - 47.8 °F 81% 29.47 in 10.0 mi South 12.7 mph 21.9 mph N/A   Overcast
6:55 PM 52.9 °F - 47.7 °F 82% 29.47 in 10.0 mi South 13.8 mph 17.3 mph N/A   Mostly Cloudy
7:15 PM 52.0 °F - 47.5 °F 85% 29.46 in 10.0 mi South 15.0 mph - N/A Thunderstorm Scattered Clouds
7:35 PM 52.3 °F - 47.7 °F 84% 29.45 in 10.0 mi South 12.7 mph 18.4 mph N/A   Clear
7:55 PM 51.8 °F - 47.5 °F 85% 29.44 in 10.0 mi South 10.4 mph 16.1 mph N/A   Clear
8:15 PM 51.1 °F - 47.3 °F 87% 29.41 in 10.0 mi South 6.9 mph - N/A   Clear
8:35 PM 50.5 °F - 47.5 °F 89% 29.38 in 10.0 mi South 9.2 mph - N/A   Clear
8:55 PM 50.5 °F - 47.5 °F 89% 29.37 in 10.0 mi South 5.8 mph - N/A   Mostly Cloudy
9:15 PM 50.7 °F - 46.9 °F 87% 29.38 in 10.0 mi South 6.9 mph - N/A   Scattered Clouds
9:35 PM 51.1 °F - 47.3 °F 87% 29.40 in 10.0 mi SW 8.1 mph - N/A Rain Light Rain
9:55 PM 52.0 °F - 47.7 °F 85% 29.37 in 10.0 mi South 12.7 mph - N/A Rain , Thunderstorm Light Thunderstorms and Rain
10:15 PM 51.1 °F - 47.7 °F 88% 29.38 in 10.0 mi SSE 10.4 mph - N/A Thunderstorm Thunderstorm
10:35 PM 50.5 °F - 47.8 °F 90% 29.41 in 10.0 mi SSW 11.5 mph - 0.01 in Thunderstorm Mostly Cloudy
10:55 PM 49.5 °F - 45.3 °F 86% 29.38 in 10.0 mi SE 4.6 mph - 0.06 in Rain Light Rain
11:15 PM 47.1 °F - 43.5 °F 87% 29.38 in 10.0 mi SSE 4.6 mph - N/A   Overcast
11:35 PM 46.6 °F - 42.8 °F 87% 29.38 in 10.0 mi SSE 8.1 mph - N/A   Overcast
11:55 PM 45.3 °F - 43.2 °F 92% 29.39 in 10.0 mi Calm Calm - N/A   Overcast